weather.gov     
National Weather Service

Regional Weather Roundup
NWS Homepage
This page is being discontinued on March 12, 2014.
The same data is available at this site. Please update your bookmarks.
Thank you, and we apologize for the inconvenience.
Please send an email to SR-SRH.Webmaster@noaa.gov with any concerns.


Current Version
Previous Version:    01  02  03  04  05  06  07  08  09  10  11  12  13  14  15  16  17  18  19  20  21  22  23  24  25  26  
[Printable]
245
ASGM40 PGUM 180312
RWRGUM
WEATHER ROUNDUP FOR THE MARIANAS
NATIONAL WEATHER SERVICE TIYAN GU
100 PM GSST FRI APR 18 2014

GUZ001>004-180400-
MARIANA ISLANDS-

CITY           SKY/WX    TMP DP  RH WIND       PRES   REMARKS
GUAM AIRPORT   LGT RAIN  86  79  79 E13       29.79F HX  99
ANDERSEN AFB   PTSUNNY   86  77  74 E14       29.80F HX  97
ROTA AIRPORT   PTSUNNY   82  77  83 E15G25    29.81F HX  91
TINIAN AP      PTSUNNY   84  75  74 E14       29.79F HX  92
SAIPAN AP      MOSUNNY   86  79  79 E13       29.80F HX  99

$$





U.S. Dept. of Commerce
NOAA National Weather Service
1325 East West Highway
Silver Spring, MD 20910
E-mail: w-nws.webmaster@noaa.gov
Page last modified: May 16, 2007
NATIONAL WEATHER SERVICE: for Safety, for Work, for Fun - FOR LIFE